Find Starlink 37697

NORAD ID: 100272 Int'l Des: 2026-183 Owner: SPXS Country: US Constellation: starlink operational

当前视图

正在加载3D地球...

About Starlink 37697

Starlink 37697 (NORAD 100272) is a starlink constellation satellite launched Aug 11, 2026 by SPXS of US. with a mass of 575.00 kg.

即将过境

Passes for default location (London). Set your location on the main map for personalized predictions.

高度历史

Loading altitude history...

两行轨道根数

1 A0272U 26183A 26256.25522812 -.00035978 00000-0 -24591-3 0 9997
2 A0272 53.1552 293.2556 0004130 319.8773 40.1941 15.73841780 5167
Epoch: Sep 13, 2026 • Age: 190 hours

当前状态

高度 362.6 km
远地点 / 近地点 N/A
速度 7.69 km/s
星下点 -44.46°S, 140.76°E
发射日期 Aug 11, 2026
运行时间 0.1 years
类型 internet

技术详情

分类 Payload
质量 575.00 kg
干质量 530.00 kg
长度 0.30 m
跨度 29.00 m
形状 ? Box + pan
制造商 SPXS
平台类型 Starlink V2MO
阶段状态 In Orbit
所有者/国家 SPXS/US

Most Searched